Weather History for Salem, IL

Change the Weather History Date:

Friday, January 25, 2013

  Actual Average Record
Temperature  
Mean Temperature 33 °F -  
Max Temperature 39 °F 40 °F 64 °F (1967)
Min Temperature 27 °F 22 °F -1 °F (1961)
Degree Days  
Heating Degree Days 32    
Moisture  
Dew Point 18 °F    
Average Humidity 56    
Maximum Humidity 78    
Minimum Humidity 41    
Precipitation  
Precipitation 0.00 in - - ()
Sea Level Pressure  
Sea Level Pressure 30.16 in    
Wind  
Wind Speed 6 mph (WSW)    
Max Wind Speed 13 mph    
Max Gust Speed 16 mph    
Visibility 10 miles    
Events      
Averages and records for this station are not official NWS values.
T = Trace of Precipitation, MM = Missing Value Source: NWS Daily Summary

Daily Weather History Graph

Daily Weather History Graph

Search for Another Location

Airport:

Trip Planner

Search our weather history database for the weather conditions in past years. The results will help you decide how hot, cold, wet, or windy it might be!

Date:

Astronomy

Jan. 25, 2013 Rise Set
Actual Time 7:06 AM CST 5:10 PM CST
Civil Twilight 6:38 AM CST 5:38 PM CST
Nautical Twilight 6:06 AM CST 6:10 PM CST
Astronomical Twilight 5:34 AM CST 6:42 PM CST
Moon 4:07 PM CST (1/25) 5:46 AM CST (1/25)
Length of Visible Light 11h 00m
Length of Day
10h 03m
Waxing Gibbous, 98% of the Moon is Illuminated
Jan 25
Waxing Gibbous
Jan 26
Full
Feb 3
Last Quarter
Feb 10
New
Feb 17
First Quarter

Hourly Weather History & Observations

Time (CST) Temp. Windchill Dew Point Humidity Pressure Visibility Wind Dir Wind Speed Gust Speed Precip Events Conditions
12:15 AM 28.2 °F 23.1 °F 8.4 °F 43% 30.28 in 10.0 mi East 4.6 mph - N/A   Overcast
12:35 AM 28.2 °F 21.0 °F 7.9 °F 42% 30.27 in 10.0 mi ESE 6.9 mph - N/A   Overcast
12:55 AM 28.0 °F 20.8 °F 8.8 °F 44% 30.26 in 10.0 mi East 6.9 mph - N/A   Overcast
1:15 AM 28.2 °F 22.0 °F 7.7 °F 42% 30.26 in 10.0 mi East 5.8 mph - N/A   Overcast
1:35 AM 28.2 °F 23.1 °F 7.7 °F 42% 30.27 in 10.0 mi East 4.6 mph - N/A   Overcast
1:55 AM 28.0 °F 21.7 °F 7.3 °F 42% 30.24 in 10.0 mi ESE 5.8 mph - N/A   Overcast
2:15 AM 28.0 °F 20.8 °F 7.9 °F 43% 30.22 in 10.0 mi ESE 6.9 mph - N/A   Overcast
2:35 AM 28.0 °F 20.8 °F 7.2 °F 41% 30.21 in 10.0 mi ESE 6.9 mph - N/A   Overcast
2:55 AM 27.9 °F 19.1 °F 7.3 °F 42% 30.19 in 10.0 mi ESE 9.2 mph - N/A   Overcast
3:15 AM 27.9 °F 18.4 °F 7.9 °F 43% 30.17 in 10.0 mi ESE 10.4 mph - N/A   Overcast
3:35 AM 27.5 °F 20.2 °F 8.1 °F 44% 30.16 in 10.0 mi SE 6.9 mph - N/A   Overcast
3:55 AM 27.5 °F 20.2 °F 8.4 °F 45% 30.16 in 10.0 mi ESE 6.9 mph - N/A   Overcast
4:15 AM 27.7 °F 23.8 °F 8.8 °F 45% 30.17 in 10.0 mi ESE 3.5 mph - N/A   Overcast
4:35 AM 27.7 °F 23.8 °F 9.1 °F 46% 30.17 in 10.0 mi ESE 3.5 mph - N/A   Overcast
4:55 AM 28.4 °F - 8.6 °F 43% 30.17 in 10.0 mi Calm Calm - N/A   Overcast
5:15 AM 27.5 °F - 9.5 °F 47% 30.17 in 10.0 mi Calm Calm - N/A   Overcast
5:35 AM 27.5 °F 20.2 °F 10.0 °F 48% 30.12 in 10.0 mi SE 6.9 mph - N/A   Overcast
5:55 AM 27.5 °F - 10.2 °F 48% 30.16 in 10.0 mi Calm Calm - N/A   Overcast
6:15 AM 27.5 °F - 10.6 °F 49% 30.16 in 10.0 mi Calm Calm - N/A   Overcast
6:35 AM 27.5 °F - 11.3 °F 51% 30.13 in 10.0 mi Calm Calm - N/A   Overcast
6:55 AM 27.7 °F - 11.1 °F 50% 30.14 in 10.0 mi Calm Calm - N/A   Overcast
7:15 AM 27.5 °F - 11.3 °F 51% 30.13 in 10.0 mi Calm Calm - N/A   Overcast
7:35 AM 28.0 °F - 11.8 °F 51% 30.14 in 10.0 mi Calm Calm - N/A   Overcast
7:55 AM 27.9 °F - 11.7 °F 51% 30.15 in 10.0 mi Calm Calm - N/A   Overcast
8:15 AM 28.2 °F - 12.0 °F 51% 30.15 in 10.0 mi Calm Calm - N/A   Overcast
8:35 AM 28.6 °F - 12.6 °F 51% 30.15 in 10.0 mi Calm Calm - N/A   Overcast
8:55 AM 29.1 °F - 13.3 °F 52% 30.16 in 10.0 mi Calm Calm - N/A   Overcast
9:15 AM 29.3 °F 25.6 °F 13.1 °F 51% 30.17 in 10.0 mi West 3.5 mph - N/A   Overcast
9:35 AM 30.2 °F 24.3 °F 14.0 °F 51% 30.17 in 10.0 mi West 5.8 mph - N/A   Overcast
9:55 AM 31.1 °F 24.5 °F 14.9 °F 51% 30.17 in 10.0 mi West 6.9 mph - N/A   Overcast
10:15 AM 31.5 °F 24.9 °F 15.3 °F 51% 30.17 in 10.0 mi West 6.9 mph - N/A   Overcast
10:35 AM 32.0 °F 26.4 °F 16.0 °F 52% 30.17 in 10.0 mi West 5.8 mph - N/A   Overcast
10:55 AM 32.5 °F 24.8 °F 17.2 °F 53% 30.16 in 10.0 mi West 9.2 mph - N/A   Overcast
11:15 AM 32.9 °F 25.9 °F 17.6 °F 53% 30.15 in 10.0 mi West 8.1 mph - N/A   Overcast
11:35 AM 33.8 °F 25.3 °F 17.8 °F 52% 30.15 in 10.0 mi West 11.5 mph - N/A   Overcast
11:55 AM 35.1 °F 26.9 °F 18.7 °F 51% 30.14 in 10.0 mi West 11.5 mph - N/A   Overcast
12:15 PM 34.9 °F 27.7 °F 19.0 °F 52% 30.13 in 10.0 mi West 9.2 mph - N/A   Overcast
12:35 PM 35.4 °F 29.0 °F 19.6 °F 53% 30.12 in 10.0 mi West 8.1 mph - N/A   Mostly Cloudy
12:55 PM 36.7 °F 28.9 °F 20.8 °F 53% 30.11 in 10.0 mi West 11.5 mph - N/A   Overcast
1:15 PM 36.9 °F 30.1 °F 21.9 °F 55% 30.12 in 10.0 mi West 9.2 mph - N/A   Overcast
1:35 PM 37.4 °F 30.8 °F 21.9 °F 54% 30.11 in 10.0 mi West 9.2 mph - N/A   Scattered Clouds
1:55 PM 37.9 °F 30.5 °F 22.8 °F 55% 30.11 in 10.0 mi WSW 11.5 mph - N/A   Clear
2:15 PM 38.3 °F 30.9 °F 23.2 °F 55% 30.11 in 10.0 mi West 11.5 mph 16.1 mph N/A   Clear
2:35 PM 39.2 °F 32.0 °F 24.3 °F 55% 30.11 in 10.0 mi WSW 11.5 mph 16.1 mph N/A   Clear
2:55 PM 39.2 °F 32.5 °F 24.6 °F 56% 30.10 in 10.0 mi West 10.4 mph - N/A   Clear
3:15 PM 39.2 °F 33.0 °F 25.3 °F 58% 30.11 in 10.0 mi West 9.2 mph - N/A   Clear
3:35 PM 39.2 °F 31.6 °F 25.3 °F 58% 30.10 in 10.0 mi West 12.7 mph - N/A   Clear
3:55 PM 39.2 °F 32.0 °F 25.5 °F 58% 30.11 in 10.0 mi WSW 11.5 mph - N/A   Clear
4:15 PM 38.8 °F 32.6 °F 25.3 °F 58% 30.11 in 10.0 mi West 9.2 mph - N/A   Clear
4:35 PM 37.9 °F 32.1 °F 25.7 °F 61% 30.11 in 10.0 mi WSW 8.1 mph - N/A   Clear
4:55 PM 36.9 °F 30.7 °F 25.5 °F 64% 30.11 in 10.0 mi WSW 8.1 mph - N/A   Clear
5:15 PM 35.4 °F 30.5 °F 25.5 °F 67% 30.12 in 10.0 mi WSW 5.8 mph - N/A   Clear
5:35 PM 34.7 °F 30.6 °F 25.2 °F 68% 30.13 in 10.0 mi WSW 4.6 mph - N/A   Clear
5:55 PM 34.3 °F 30.2 °F 24.8 °F 68% 30.13 in 10.0 mi WSW 4.6 mph - N/A   Clear
6:15 PM 33.4 °F 30.4 °F 25.2 °F 72% 30.14 in 10.0 mi WSW 3.5 mph - N/A   Clear
6:35 PM 34.7 °F 30.6 °F 24.8 °F 67% 30.14 in 10.0 mi WSW 4.6 mph - N/A   Clear
6:55 PM 33.8 °F 28.6 °F 24.8 °F 70% 30.14 in 10.0 mi WSW 5.8 mph - N/A   Clear
7:15 PM 33.6 °F 29.4 °F 25.2 °F 71% 30.14 in 10.0 mi WSW 4.6 mph - N/A   Clear
7:35 PM 32.4 °F 27.9 °F 25.5 °F 76% 30.14 in 10.0 mi SW 4.6 mph - N/A   Clear
7:55 PM 31.8 °F 28.5 °F 25.5 °F 78% 30.14 in 10.0 mi SW 3.5 mph - N/A   Clear
8:15 PM 32.5 °F 29.3 °F 25.3 °F 75% 30.14 in 10.0 mi SW 3.5 mph - N/A   Clear
8:35 PM 33.3 °F 27.9 °F 24.4 °F 70% 30.15 in 10.0 mi WSW 5.8 mph - N/A   Clear
8:55 PM 32.2 °F 26.7 °F 24.4 °F 73% 30.15 in 10.0 mi WSW 5.8 mph - N/A   Clear
9:15 PM 32.2 °F 25.8 °F 25.2 °F 75% 30.15 in 10.0 mi WSW 6.9 mph - N/A   Clear
9:35 PM 33.1 °F 27.7 °F 24.8 °F 72% 30.16 in 10.0 mi WSW 5.8 mph - N/A   Clear
9:55 PM 32.5 °F 27.1 °F 25.2 °F 74% 30.17 in 10.0 mi WSW 5.8 mph - N/A   Clear
10:15 PM 32.5 °F 26.2 °F 24.8 °F 73% 30.17 in 10.0 mi WSW 6.9 mph - N/A   Clear
10:35 PM 32.5 °F 26.2 °F 24.8 °F 73% 30.18 in 10.0 mi WSW 6.9 mph - N/A   Clear
10:55 PM 33.1 °F 26.9 °F 24.8 °F 72% 30.19 in 10.0 mi WSW 6.9 mph - N/A   Clear
11:15 PM 33.8 °F 26.4 °F 24.6 °F 69% 30.20 in 10.0 mi West 9.2 mph - N/A   Clear
11:35 PM 32.9 °F 27.5 °F 24.8 °F 72% 30.21 in 10.0 mi West 5.8 mph - N/A   Clear
11:55 PM 32.5 °F 26.2 °F 24.8 °F 73% 30.21 in 10.0 mi West 6.9 mph - N/A   Clear